Date,TemperatureHighF,TemperatureAvgF,TemperatureLowF,DewpointHighF,DewpointAvgF,DewpointLowF,HumidityHigh,HumidityAvg,HumidityLow,PressureMaxIn,PressureMinIn,WindSpeedMaxMPH,WindSpeedAvgMPH,GustSpeedMaxMPH,PrecipitationSumIn
2013-1-1,16.9,5.4,-8.5,11.4,-1.9,-13.8,79,71,55,30.26,30.06,7,1,12,0.00
2013-1-2,39.0,17.0,9.3,13.4,10.1,4.8,83,74,60,30.06,29.96,6,1,10,0.00
2013-1-3,22.5,16.7,7.9,17.4,11.2,2.7,86,78,70,30.20,30.05,8,2,14,0.00
2013-1-4,38.1,20.6,9.1,23.4,13.1,4.8,86,73,54,30.15,30.00,7,1,12,0.00
2013-1-5,29.5,17.4,8.2,20.7,12.2,4.8,88,80,64,30.14,29.85,4,1,7,0.00
2013-1-6,28.4,20.2,11.8,18.4,13.0,5.3,83,74,58,30.21,29.94,6,1,11,0.00
2013-1-7,40.6,26.4,14.2,26.3,19.0,8.1,86,74,57,30.13,29.90,12,2,17,0.00
2013-1-8,41.0,27.9,13.8,30.3,22.0,11.0,91,79,61,30.01,29.79,55,2,55,0.00
2013-1-9,41.0,31.3,21.0,27.2,22.6,14.7,84,71,37,30.37,29.88,11,3,27,0.00
2013-1-10,44.2,31.6,18.9,32.7,22.9,1.8,91,73,41,30.40,29.78,25,1,53,0.22
2013-1-11,42.4,37.8,26.2,39.6,35.3,20.3,93,91,86,29.81,29.43,25,1,52,0.01
2013-1-12,43.5,24.6,10.8,39.7,16.6,2.7,89,71,61,30.05,29.42,14,4,27,0.01
2013-1-13,24.4,9.7,5.7,7.5,2.6,0.3,79,72,62,30.22,29.99,7,2,14,0.00
2013-1-14,18.3,8.9,2.3,9.0,2.9,-2.3,83,76,65,30.38,30.22,7,1,14,0.00
2013-1-15,42.3,19.9,4.8,17.7,11.4,0.6,85,70,49,30.33,29.88,10,2,17,0.00
2013-1-16,37.2,27.5,15.8,30.8,18.2,3.0,83,68,45,30.17,29.67,9,3,17,0.00
2013-1-17,24.1,14.0,8.2,9.7,2.5,-2.7,78,60,44,30.38,30.17,5,1,13,0.00
2013-1-18,50.5,28.5,11.1,31.0,20.8,5.2,83,74,56,30.33,29.73,11,2,17,0.02
2013-1-19,44.6,27.1,5.7,33.2,19.2,-4.6,88,72,47,30.11,29.65,15,3,30,0.00
2013-1-20,12.6,5.5,0.3,-1.9,-4.2,-6.6,72,64,46,30.34,30.11,8,2,17,0.00
2013-1-21,6.8,-4.5,-8.5,-4.7,-14.6,-19.2,71,61,47,30.29,30.19,10,3,21,0.00
2013-1-22,4.5,-3.8,-11.2,-8.3,-13.3,-18.1,70,63,50,30.38,30.24,5,1,12,0.00
2013-1-23,19.9,6.5,-4.7,9.1,-3.0,-15.3,78,64,48,30.56,30.09,9,2,21,0.00
2013-1-24,11.7,2.7,-6.5,3.0,-7.6,-15.6,69,61,53,30.66,30.23,4,1,11,0.00
2013-1-25,25.0,14.6,4.8,17.3,7.2,-2.9,81,72,58,30.25,29.92,9,2,17,0.00
2013-1-26,24.4,13.0,-3.1,12.3,3.5,-7.8,82,66,49,30.38,30.16,6,1,15,0.00
2013-1-27,32.4,27.7,20.5,28.9,20.8,11.0,91,76,57,30.20,29.82,6,1,11,0.00
2013-1-28,37.2,32.8,28.9,30.8,29.0,26.1,90,86,76,29.93,29.67,5,0,9,0.15
2013-1-29,37.8,34.4,30.7,32.1,29.3,22.5,90,82,71,29.67,29.50,7,1,12,0.31
2013-1-30,30.7,21.1,12.6,22.9,14.0,3.9,85,73,66,29.67,29.54,8,3,18,0.00
2013-1-31,17.2,6.3,-3.3,6.1,-1.8,-11.5,79,69,56,30.19,29.67,8,3,19,0.00
2013-2-1,7.3,-1.5,-11.0,-1.2,-11.3,-18.3,76,62,46,30.29,30.07,7,2,14,0.00
2013-2-2,16.0,7.6,2.3,2.4,-1.3,-6.0,80,67,46,30.16,29.96,5,1,8,0.00
2013-2-3,20.3,12.2,7.3,6.5,3.3,1.5,80,67,50,30.03,29.94,7,2,16,0.00
2013-2-4,19.9,11.3,2.5,7.4,1.0,-3.5,83,64,39,30.04,29.85,5,1,8,0.00
2013-2-5,29.8,18.6,4.1,22.6,11.9,-0.5,85,75,60,30.08,29.66,8,1,14,0.00
2013-2-6,36.0,14.3,-2.0,22.3,9.7,-6.4,84,81,72,30.15,29.98,5,1,11,0.00
2013-2-7,34.5,26.3,25.3,24.7,22.6,19.2,93,86,80,30.23,30.01,53,3,53,0.00
2013-2-8,42.3,20.0,9.7,20.6,10.9,4.7,85,68,45,30.39,30.23,11,2,21,0.00
2013-2-9,32.4,24.0,10.8,24.2,18.6,5.4,86,80,71,30.30,29.99,8,2,14,0.00
2013-2-10,36.9,31.8,27.0,33.3,28.6,22.6,91,88,82,30.00,29.25,11,2,17,0.41
2013-2-11,35.2,28.9,21.7,32.3,23.2,15.5,90,79,67,30.01,29.27,7,2,15,0.04
2013-2-12,37.8,26.3,16.0,24.1,18.8,11.5,87,74,56,30.03,29.79,8,2,13,0.00
2013-2-13,41.4,30.8,21.0,31.3,24.0,17.1,95,77,56,29.80,29.57,6,1,13,0.01
2013-2-14,39.2,28.9,12.6,37.0,21.6,3.3,96,75,55,30.12,29.57,7,1,14,0.02
2013-2-15,22.5,13.4,8.8,6.9,3.1,0.0,73,63,49,30.24,30.11,7,2,13,0.00
2013-2-16,23.4,9.5,-0.9,6.8,-0.3,-6.3,80,65,43,30.21,30.14,4,1,9,0.00
2013-2-17,33.3,14.1,-7.1,15.9,4.3,-12.1,80,66,46,30.16,29.75,7,2,52,0.00
2013-2-18,43.2,28.4,18.0,30.3,21.6,12.4,84,76,60,29.75,29.51,8,2,16,0.00
2013-2-19,17.8,9.7,3.4,12.7,-1.2,-6.8,80,61,47,30.28,29.67,27,3,27,0.00
2013-2-20,24.8,10.6,-2.6,9.2,0.7,-10.0,74,64,48,30.41,30.27,8,1,11,0.00
2013-2-21,23.2,13.5,0.3,13.6,4.8,-4.5,84,68,54,30.46,30.10,10,2,13,0.00
2013-2-22,34.0,25.9,21.2,25.3,21.6,13.6,92,84,69,30.10,29.82,11,2,19,0.00
2013-2-23,35.4,27.3,22.3,25.1,21.5,19.1,88,79,64,29.94,29.82,6,2,11,0.01
2013-2-24,45.5,27.3,18.5,38.5,21.7,10.8,86,80,65,30.10,29.94,24,1,51,0.04
2013-2-25,40.3,30.3,18.3,29.4,24.2,14.5,89,78,63,30.12,30.03,4,0,25,0.00
2013-2-26,37.9,32.5,27.0,26.2,25.1,22.2,85,74,61,30.06,29.83,14,3,51,0.00
2013-2-27,37.8,33.3,30.4,28.5,25.4,19.9,80,72,62,29.96,29.81,11,4,19,0.00
2013-2-28,35.1,29.8,23.9,27.0,20.9,14.2,83,69,62,30.21,29.95,10,4,18,0.00
2013-3-1,23.9,13.6,0.0,14.9,14.6,14.1,68,39,66,30.32,29.74,6,2,11,0.00
2013-3-2,31.5,12.8,0.0,14.6,12.5,6.3,69,26,42,30.33,29.74,4,1,8,0.00
2013-3-3,35.6,20.1,4.1,13.6,5.0,-0.3,84,55,26,30.17,30.03,25,1,25,0.05
2013-3-4,29.1,24.2,16.0,22.0,11.8,-0.1,81,59,46,30.07,29.99,8,2,17,0.00
2013-3-5,30.0,25.4,21.6,24.6,21.8,18.3,92,86,79,30.23,30.00,8,3,17,0.00
2013-3-6,35.6,25.1,12.6,20.8,16.1,7.3,85,69,46,30.37,30.21,8,1,12,0.05
2013-3-7,39.2,21.1,2.5,18.1,10.6,-1.9,83,66,38,30.40,30.32,24,1,24,0.00
2013-3-8,53.4,31.1,14.2,38.6,21.5,9.8,88,69,48,30.38,30.16,27,1,65,6.04
2013-3-9,37.2,34.9,32.0,34.4,30.6,24.4,94,85,71,30.16,29.73,6,1,16,0.33
2013-3-10,38.1,35.2,30.6,35.9,31.6,28.5,96,87,74,29.91,29.74,12,3,18,0.01
2013-3-11,36.0,30.0,28.0,29.6,26.0,22.4,96,85,73,29.81,29.67,6,2,11,0.04
2013-3-12,36.1,27.1,20.7,23.7,18.1,11.5,86,70,46,30.12,29.78,9,3,16,0.01
2013-3-13,38.5,24.0,13.3,17.4,9.5,4.8,80,56,27,30.32,30.12,7,2,16,0.20
2013-3-14,44.6,28.3,18.1,29.2,20.5,10.4,82,73,53,30.28,30.01,7,1,10,0.04
2013-3-15,37.4,31.2,26.2,30.3,27.1,22.1,96,85,72,30.03,29.84,26,3,26,0.07
2013-3-16,36.3,23.8,14.9,25.7,15.4,6.0,95,72,42,30.19,29.85,9,2,14,0.00
2013-3-17,31.6,19.3,6.1,14.1,6.9,-1.5,72,59,38,30.25,29.95,8,2,13,0.02
2013-3-18,34.9,23.2,15.8,27.1,17.2,8.9,86,77,67,29.96,29.58,9,3,18,0.00
2013-3-19,28.8,17.7,9.3,9.4,5.2,-1.3,76,59,39,30.09,29.70,11,5,23,0.00
2013-3-20,25.5,13.0,3.6,10.9,-0.4,-5.6,70,55,39,30.13,30.06,8,3,17,0.00
2013-3-21,15.6,0.0,-2.9,6.2,-6.0,-8.7,76,75,64,30.11,30.03,6,1,9,0.00
2013-3-22,21.2,5.5,3.6,12.7,-0.0,-1.4,79,77,64,30.08,30.02,24,0,24,0.00
2013-3-23,41.7,28.5,13.8,22.8,17.4,8.7,82,64,44,30.15,30.05,8,2,11,0.00
2013-3-24,32.7,27.9,27.0,22.8,20.9,20.4,76,75,66,30.10,29.93,8,1,11,0.00
2013-3-25,41.4,29.8,16.9,23.8,19.4,12.6,84,66,43,30.18,29.98,9,2,13,0.00
2013-3-26,46.8,33.2,25.0,38.6,25.1,17.9,74,72,59,30.27,30.17,7,1,11,0.00
2013-3-27,50.2,36.6,25.7,26.8,19.6,12.1,75,53,23,30.32,30.27,7,1,58,0.05
2013-3-28,52.7,33.6,16.9,24.1,17.2,12.4,84,56,23,30.35,30.27,26,1,26,0.00
2013-3-29,56.1,36.8,20.7,27.4,20.7,15.9,86,57,24,30.32,30.13,6,1,12,0.01
2013-3-30,43.9,39.2,28.8,40.1,33.9,25.9,92,82,64,30.13,29.82,4,1,10,0.59
2013-3-31,45.9,34.9,27.5,35.1,25.1,12.4,95,71,34,30.01,29.75,52,2,52,0.01
2013-4-1,36.7,27.5,18.9,16.7,13.2,9.4,72,55,40,30.20,30.01,9,3,17,0.00
2013-4-2,40.5,29.3,24.8,26.9,16.0,13.2,61,57,44,30.33,30.19,7,2,15,0.00
2013-4-3,36.5,21.8,18.7,28.3,13.6,11.2,72,70,56,30.44,30.12,4,1,10,0.19
2013-4-4,55.0,42.3,30.9,40.1,27.4,11.9,69,56,42,30.13,30.01,11,3,52,0.00
2013-4-5,54.7,36.2,25.0,28.2,19.4,11.1,73,53,22,30.25,30.00,49,2,49,0.00
2013-4-6,53.4,40.0,33.8,34.8,28.1,23.7,84,63,41,30.00,29.50,27,2,27,0.21
2013-4-7,48.4,39.7,35.1,34.9,29.8,24.9,81,68,55,29.96,29.70,5,1,10,0.01
2013-4-8,45.7,39.7,25.9,38.2,36.0,24.2,95,87,76,30.02,29.73,7,2,11,0.35
2013-4-9,43.5,38.9,34.5,37.5,34.3,26.4,94,84,61,30.16,29.97,14,4,21,0.51
2013-4-10,44.1,35.8,28.8,30.9,26.9,17.5,97,72,43,30.18,29.91,13,4,24,0.14
2013-4-11,45.7,34.3,29.8,34.4,27.7,18.4,95,79,45,29.92,29.68,14,6,27,0.19
2013-4-12,44.6,33.8,28.8,31.8,28.6,20.6,95,82,57,29.79,29.62,8,2,13,0.13
2013-4-13,45.5,33.2,24.4,31.6,25.2,19.8,88,73,50,29.99,29.79,7,1,16,0.02
2013-4-14,36.9,31.0,23.9,34.3,27.9,20.2,95,88,69,29.99,29.56,11,2,19,0.85
2013-4-15,57.7,38.5,33.3,38.0,30.0,25.9,95,73,53,29.95,29.59,15,4,33,0.01
2013-4-16,50.4,39.3,30.4,31.0,27.5,23.6,79,64,41,30.32,29.94,8,2,14,0.00
2013-4-17,49.1,36.7,28.4,34.9,28.9,23.5,95,74,63,30.33,29.86,12,4,24,0.06
2013-4-18,43.3,36.0,32.4,35.8,34.3,31.2,97,94,83,29.88,29.34,11,2,19,0.57
2013-4-19,40.1,33.0,25.2,31.4,25.7,14.6,96,75,52,29.95,29.32,10,2,21,0.09
2013-4-20,46.2,33.0,18.7,22.8,13.9,6.7,87,51,21,30.33,29.96,7,1,12,0.00
2013-4-21,47.5,38.7,32.0,43.2,30.6,14.9,94,74,47,30.37,30.10,8,2,18,0.33
2013-4-22,52.7,39.9,33.3,43.7,38.3,31.5,97,94,90,30.19,30.00,12,2,17,0.70
2013-4-23,45.1,36.4,28.4,31.7,27.4,20.9,94,72,44,30.08,29.98,7,2,14,0.12
2013-4-24,58.1,40.4,25.3,33.2,25.6,19.3,86,59,29,30.05,29.88,12,3,23,0.04
2013-4-25,53.4,41.0,32.5,33.4,30.2,25.9,90,68,37,30.21,29.96,8,2,14,0.00
2013-4-26,76.5,57.1,38.1,41.2,35.5,24.8,70,47,23,30.17,30.02,11,3,19,0.01
2013-4-27,78.4,60.4,41.2,50.4,44.3,37.6,89,59,31,30.14,29.96,8,2,17,0.00
2013-4-28,80.6,62.9,43.2,51.4,43.8,38.8,88,54,26,29.96,29.71,10,2,16,0.04
2013-4-29,81.3,63.9,54.3,58.4,53.6,50.7,94,72,37,29.81,29.64,8,1,14,0.07
2013-4-30,85.5,68.6,54.3,59.1,50.1,30.0,86,57,23,29.95,29.52,14,3,24,0.06
2013-5-1,55.9,44.6,34.3,50.4,39.6,32.6,94,83,72,30.44,29.93,6,2,13,0.50
2013-5-2,37.8,33.6,32.0,33.4,32.0,30.0,99,94,88,30.48,30.38,8,1,11,0.19
2013-5-3,37.8,33.8,31.5,33.4,31.4,24.7,95,91,83,30.38,30.11,10,1,24,0.71
2013-5-4,55.4,42.7,34.0,42.3,37.4,31.6,97,82,60,30.14,30.07,8,2,12,0.25
2013-5-5,70.7,52.2,34.7,48.9,40.9,31.9,92,68,44,30.14,30.04,7,1,10,0.00
2013-5-6,80.2,60.9,40.3,48.5,39.4,31.8,88,52,19,30.11,30.00,5,1,10,0.00
2013-5-7,85.8,65.6,45.0,47.7,38.9,26.4,83,45,12,30.08,29.97,7,1,15,0.00
2013-5-8,87.8,67.9,46.9,50.7,42.3,30.8,83,46,15,30.03,29.94,7,1,10,0.00
2013-5-9,63.0,54.1,43.0,53.1,47.9,38.9,95,80,60,30.07,29.95,11,2,18,0.61
2013-5-10,68.9,52.6,39.2,39.1,30.2,16.4,86,48,14,30.08,29.90,10,2,22,0.00
2013-5-11,53.6,47.7,41.4,44.0,29.6,21.3,82,51,29,30.11,29.85,11,3,22,0.05
2013-5-12,59.4,47.0,33.6,27.8,18.3,5.8,61,36,13,30.17,30.07,9,2,17,0.00
2013-5-13,70.0,52.5,30.6,37.1,27.9,16.8,71,42,15,30.15,29.74,9,2,16,0.00
2013-5-14,93.0,67.0,44.4,53.6,40.4,18.2,79,46,10,29.78,29.46,9,2,19,0.00
2013-5-15,80.8,69.5,57.4,46.9,42.8,33.4,63,40,23,29.91,29.61,8,2,14,0.00
2013-5-16,85.5,70.0,51.6,49.8,38.5,22.4,83,38,15,29.95,29.84,11,2,19,0.00
2013-5-17,67.8,57.0,53.2,57.2,47.5,36.6,93,72,33,30.06,29.95,8,2,18,0.15
2013-5-18,82.8,65.9,52.5,63.3,56.0,48.0,88,72,49,30.05,29.85,8,1,12,0.00
2013-5-19,88.5,71.1,63.0,66.2,62.0,57.7,98,75,43,29.88,29.64,10,2,24,1.46
2013-5-20,79.5,69.0,60.8,64.8,60.2,53.8,99,76,48,29.70,29.56,11,2,21,0.47
2013-5-21,75.9,64.7,58.5,66.5,58.5,53.1,98,81,57,29.70,29.55,6,1,11,0.72
2013-5-22,59.7,55.0,51.1,56.0,51.2,47.2,95,87,75,29.94,29.68,8,2,16,0.31
2013-5-23,65.3,54.7,43.0,49.5,34.3,22.9,90,51,23,30.35,29.94,11,3,21,0.00
2013-5-24,72.5,56.2,34.9,41.6,35.3,29.5,86,49,22,30.44,30.26,7,1,13,0.00
2013-5-25,65.3,57.8,52.2,50.3,45.7,39.3,89,65,44,30.32,30.26,6,1,12,0.07
2013-5-26,67.5,58.5,47.1,46.5,40.4,33.6,78,53,33,30.29,30.12,7,1,16,0.00
2013-5-27,62.8,57.5,52.7,54.2,48.5,40.6,96,73,55,30.12,29.88,8,2,17,0.13
2013-5-28,60.3,56.4,52.5,57.9,54.4,51.1,99,93,85,29.87,29.71,5,1,8,0.09
2013-5-29,82.8,64.8,56.7,68.4,60.8,55.5,97,88,59,29.87,29.73,7,1,20,0.78
2013-5-30,80.6,71.3,62.4,70.2,64.7,56.8,96,81,60,29.77,29.56,25,2,25,0.25
2013-5-31,84.4,69.0,58.8,64.6,60.4,53.1,92,76,46,29.66,29.56,11,2,29,0.58
2013-6-1,77.0,63.0,50.4,62.4,55.1,44.4,95,77,47,29.88,29.59,8,2,15,0.11
2013-6-2,67.1,54.7,44.8,45.0,41.8,37.9,88,64,37,30.07,29.88,8,2,14,0.00
2013-6-3,76.5,61.9,42.6,53.7,43.4,37.0,92,55,25,30.09,29.99,4,1,9,0.00
2013-6-4,61.2,57.3,53.8,54.5,49.2,40.0,91,76,47,30.16,30.04,5,1,11,0.21
2013-6-5,57.4,54.6,52.2,55.6,52.9,50.7,98,94,89,30.11,29.95,5,1,10,0.45
2013-6-6,57.2,54.2,52.2,53.4,51.8,51.1,97,91,84,30.02,29.94,6,2,10,0.04
2013-6-7,74.7,62.3,52.9,54.3,48.4,40.7,97,65,33,30.04,29.93,6,1,11,0.00
2013-6-8,74.7,64.5,55.0,57.3,53.3,50.3,89,68,49,29.97,29.92,6,1,14,0.00
2013-6-9,68.2,61.1,55.8,64.7,56.6,50.4,93,85,70,29.97,29.81,6,1,14,0.37
2013-6-10,81.0,68.6,58.3,65.4,60.5,57.1,99,78,50,29.86,29.80,3,0,8,0.00
2013-6-11,82.6,70.0,55.6,66.3,61.8,53.6,97,77,53,29.91,29.81,3,0,7,0.04
2013-6-12,72.5,67.1,63.1,66.3,63.3,59.2,99,88,76,29.92,29.76,7,1,12,0.11
2013-6-13,79.0,68.9,55.9,61.5,53.1,46.1,92,60,37,30.10,29.85,9,2,13,0.00
2013-6-14,83.8,70.0,53.4,61.1,54.3,49.1,89,60,36,30.14,29.93,7,1,12,0.09
2013-6-15,80.1,69.2,60.6,69.1,62.9,57.8,92,81,67,29.99,29.81,5,1,12,0.05
2013-6-16,87.6,72.8,55.8,66.4,53.5,43.2,98,58,24,29.92,29.84,6,1,15,0.01
2013-6-17,86.9,72.1,57.9,60.6,53.9,49.6,80,55,30,30.01,29.86,8,1,15,0.00
2013-6-18,78.1,67.4,60.3,56.0,50.2,39.6,80,58,28,30.11,30.01,8,2,12,0.00
2013-6-19,86.0,71.3,56.1,60.1,54.3,46.6,71,56,38,30.14,30.01,6,1,11,0.00
2013-6-20,87.3,74.7,63.5,70.0,61.5,56.8,87,65,45,30.09,29.95,7,1,14,0.20
2013-6-21,80.8,71.7,64.9,67.2,64.7,60.3,95,79,60,30.12,29.75,8,2,14,1.88
2013-6-22,81.5,72.6,64.8,71.2,67.5,63.0,99,85,63,30.04,29.85,11,1,17,0.17
2013-6-23,86.2,76.1,67.1,70.3,66.0,63.3,92,72,49,29.91,29.76,11,2,17,0.02
2013-6-24,88.0,75.3,64.8,72.0,66.7,61.3,95,76,57,29.93,29.82,6,1,13,0.00
2013-6-25,88.2,77.4,65.5,70.4,67.3,62.5,95,73,52,29.88,29.75,6,1,12,0.08
2013-6-26,90.9,76.1,68.9,76.4,71.8,66.2,99,88,56,29.79,29.69,10,1,14,1.12
2013-6-27,89.6,77.5,67.3,73.1,63.8,53.7,98,67,34,29.82,29.74,9,2,23,0.13
2013-6-28,78.3,69.7,62.2,68.8,60.7,55.1,88,73,59,29.80,29.68,7,1,16,0.41
2013-6-29,73.4,66.2,62.1,64.7,57.3,48.0,87,74,54,29.97,29.74,8,1,17,0.05
2013-6-30,82.6,68.9,51.3,54.6,48.6,38.5,86,52,24,30.11,29.97,10,1,17,0.00
2013-7-1,85.6,71.7,55.2,58.4,52.8,48.1,91,55,30,30.19,30.11,8,1,14,0.00
2013-7-2,83.3,70.7,57.4,59.1,52.4,43.8,82,55,28,30.16,30.05,7,1,12,0.00
2013-7-3,86.7,72.1,56.3,62.2,55.5,48.8,90,59,30,30.10,29.98,6,1,11,0.00
2013-7-4,90.0,76.1,61.0,63.8,59.4,54.4,82,58,36,30.02,29.92,8,2,17,0.00
2013-7-5,91.6,79.0,63.3,63.5,59.4,54.3,82,54,31,29.98,29.88,8,2,17,0.00
2013-7-6,95.0,81.1,66.4,68.0,64.3,59.1,79,58,38,29.95,29.87,7,2,14,0.00
2013-7-7,93.2,82.2,71.8,72.0,68.9,64.6,87,65,44,29.91,29.85,6,1,12,0.09
2013-7-8,88.2,78.7,72.7,72.2,69.9,67.9,92,75,53,29.99,29.85,5,0,8,0.00
2013-7-9,88.5,78.6,70.0,76.5,70.1,66.1,93,77,50,29.99,29.80,8,1,17,0.11
2013-7-10,81.5,73.4,64.2,68.0,56.9,50.7,82,58,37,30.04,29.86,8,2,16,0.00
2013-7-11,90.5,74.4,58.1,63.5,56.5,49.7,90,58,26,30.13,30.03,5,1,11,0.00
2013-7-12,90.5,76.2,62.2,63.1,60.0,57.2,85,60,36,30.09,30.00,8,2,16,0.00
2013-7-13,86.5,74.2,65.3,65.4,60.7,57.2,86,64,43,30.11,30.00,7,1,14,0.05
2013-7-14,93.4,79.7,66.4,66.6,63.1,60.7,83,59,36,30.22,30.11,8,1,13,0.00
2013-7-15,96.6,81.5,66.2,69.9,65.8,62.6,90,63,35,30.27,30.19,6,1,11,0.00
2013-7-16,100.4,86.5,73.9,75.8,70.3,66.3,88,61,36,30.24,30.19,6,1,15,0.00
2013-7-17,99.3,86.0,73.2,76.2,68.5,62.9,88,59,33,30.27,30.13,6,1,10,0.00
2013-7-18,100.0,87.1,74.5,73.9,68.9,65.5,84,57,34,30.14,29.80,9,2,17,0.00
2013-7-19,92.3,82.6,70.2,72.5,64.1,54.5,80,55,34,29.87,29.71,7,2,16,0.01
2013-7-20,85.1,74.1,64.8,63.8,56.3,48.7,84,56,33,29.98,29.85,26,2,26,1.51
2013-7-21,77.5,67.6,59.9,64.4,58.7,7.5,94,74,10,30.01,29.87,5,2,11,0.18
2013-7-22,89.8,74.1,61.3,75.5,65.8,56.1,96,77,54,29.88,29.63,7,1,13,0.34
2013-7-23,77.0,67.0,57.9,57.1,52.1,3.0,87,61,39,30.04,29.80,9,2,15,0.01
2013-7-24,80.2,66.5,52.0,54.9,50.9,46.6,87,60,32,30.10,30.00,4,0,8,0.00
2013-7-25,86.2,70.0,-4.5,65.1,59.1,-8.2,87,70,45,30.02,29.91,32,2,32,0.06
2013-7-26,78.1,67.0,54.0,65.9,57.2,49.1,93,73,42,30.04,29.88,8,2,15,0.02
2013-7-27,61.5,55.0,47.8,51.3,47.6,43.1,91,77,54,30.03,29.88,6,2,13,0.11
2013-7-28,71.4,59.4,49.5,54.9,51.2,46.5,95,76,50,30.06,29.91,6,1,11,0.01
2013-7-29,81.9,66.3,49.5,57.8,53.7,47.5,95,67,35,30.16,30.06,5,1,8,0.00
2013-7-30,80.4,69.9,63.1,65.0,60.3,55.6,83,72,54,30.15,30.06,4,0,8,0.04
2013-7-31,82.9,71.2,60.3,67.4,62.1,54.6,94,75,41,30.07,29.95,5,1,13,0.00
2013-8-1,84.4,69.3,54.5,59.8,54.2,47.9,92,63,30,30.03,29.86,6,1,14,0.00
2013-8-2,81.7,69.0,56.3,62.7,53.3,47.1,94,61,33,30.03,29.84,8,1,13,0.00
2013-8-3,79.7,66.6,51.4,58.3,49.3,39.6,90,58,25,30.19,30.03,7,1,14,0.00
2013-8-4,81.9,65.6,51.3,56.4,51.7,47.8,93,64,36,30.26,30.07,4,1,10,0.00
2013-8-5,105.6,66.7,57.7,67.0,60.2,38.0,94,81,10,30.07,29.82,6,1,9,0.02
2013-8-6,88.7,73.8,63.3,67.0,62.7,17.1,96,71,38,29.86,29.69,6,1,62,0.06
2013-8-7,124.9,74.6,57.7,99.9,59.9,-14.1,97,70,37,30.03,29.76,8,1,13,0.02
2013-8-8,103.3,67.4,50.5,56.9,52.1,48.0,94,62,33,30.06,28.98,24,0,11,0.00
2013-8-9,82.8,69.3,57.6,62.1,53.3,46.5,93,61,30,30.11,28.98,6,1,14,0.00
2013-8-10,79.9,69.3,58.8,56.5,52.1,47.3,79,56,35,30.19,28.73,5,0,52,0.00
2013-8-11,82.0,68.2,-11.2,62.8,57.3,-19.8,86,70,44,30.12,30.00,3,0,50,0.00
2013-8-12,83.3,69.1,0.7,71.4,56.0,-4.4,96,68,10,30.07,29.96,8,1,16,0.09
2013-8-13,77.2,66.2,36.7,53.2,30.0,-29.4,74,32,10,30.20,30.08,8,1,18,3.02
2013-8-14,82.2,62.8,-0.9,50.7,35.0,-39.6,79,41,10,30.22,30.11,30,1,49,0.09
2013-8-15,110.1,61.0,0.0,99.9,41.4,-40.2,85,46,10,30.16,30.08,97,85,97,3.77
2013-8-16,89.4,69.6,-24.3,58.0,51.1,-50.3,77,55,10,30.20,30.14,97,74,97,0.00
2013-8-17,89.2,70.4,6.6,59.1,51.5,-38.2,91,57,10,30.24,30.13,24,1,12,0.00
2013-8-18,89.4,72.1,56.5,59.8,55.2,51.0,90,59,28,30.19,30.04,7,1,14,0.00
2013-8-19,90.1,73.5,58.8,65.6,61.0,54.6,88,67,41,30.06,29.94,6,1,11,0.09
2013-8-20,94.3,79.0,66.0,70.4,66.6,24.1,87,68,10,29.98,29.89,50,2,50,0.00
2013-8-21,92.8,76.4,18.5,72.5,66.8,3.0,97,75,10,30.02,29.88,10,2,51,0.19
2013-8-22,86.0,73.7,26.4,67.6,58.7,2.5,99,65,32,30.14,30.00,8,1,13,1.46
2013-8-23,91.8,72.6,37.0,63.1,57.6,-0.3,87,62,20,30.18,30.08,5,1,11,0.19
2013-8-24,88.3,75.5,64.6,70.9,63.8,53.8,84,68,50,30.18,30.01,7,2,17,0.21
2013-8-25,98.2,85.5,76.3,73.6,71.4,17.6,80,64,43,30.07,29.98,7,2,60,0.19
2013-8-26,108.0,86.9,79.0,99.9,72.2,30.4,87,63,10,30.05,29.88,12,1,12,0.00
2013-8-27,99.3,85.4,76.8,76.8,72.6,17.6,82,67,10,29.91,29.79,4,0,7,0.19
2013-8-28,90.0,79.8,-9.9,73.6,70.1,-11.7,96,74,51,30.04,29.91,49,1,7,0.09
2013-8-29,96.3,83.2,70.3,75.4,71.8,67.8,92,70,46,30.05,29.89,5,2,11,0.00
2013-8-30,85.5,79.7,69.8,74.3,68.0,-28.3,87,69,49,29.91,29.81,9,3,17,0.00
2013-8-31,89.8,75.8,62.2,68.4,62.1,47.9,94,67,24,29.91,29.73,27,2,27,0.05
2013-9-1,82.6,72.4,-6.7,67.9,61.7,-8.9,93,71,10,29.94,29.73,6,1,15,0.01
2013-9-2,76.8,63.0,52.9,69.5,50.5,44.6,81,65,44,30.07,29.94,7,1,12,0.00
2013-9-3,79.0,61.9,44.6,55.3,49.4,18.0,94,67,11,30.12,30.00,15,1,53,0.00
2013-9-4,85.5,68.6,53.6,63.8,56.7,-16.4,89,68,46,30.18,30.03,4,1,11,0.00
2013-9-5,82.9,69.0,56.8,61.2,52.4,18.7,87,61,10,30.27,30.15,5,1,49,0.02
2013-9-6,93.0,75.4,-8.3,69.5,61.0,-17.4,90,64,36,30.15,29.91,7,1,14,0.19
2013-9-7,94.1,79.1,69.4,68.4,64.6,60.4,82,63,34,30.03,29.86,8,2,51,0.00
2013-9-8,81.1,70.8,61.0,63.9,57.1,50.4,82,64,38,30.09,29.93,8,2,18,0.00
2013-9-9,90.9,78.5,66.9,73.6,67.2,62.9,99,70,51,29.93,29.65,7,1,15,0.00
2013-9-10,89.8,77.5,71.2,68.8,65.2,-13.0,87,67,40,29.97,29.74,5,0,9,0.19
2013-9-11,92.3,74.2,62.1,64.6,55.6,9.3,86,57,10,30.04,29.96,7,1,15,0.00
2013-9-12,74.3,62.9,54.1,54.8,49.0,18.0,87,63,36,30.24,29.99,8,2,14,0.00
2013-9-13,69.6,55.5,38.3,46.4,41.5,36.2,93,63,33,30.29,30.11,7,1,49,0.00
2013-9-14,81.3,59.7,42.3,55.1,43.1,-9.0,91,62,10,30.12,29.93,7,1,14,0.69
2013-9-15,72.5,58.1,47.3,57.2,52.8,4.4,98,83,62,30.32,29.91,10,2,18,0.34
2013-9-16,67.8,49.3,12.4,45.1,36.6,4.2,96,66,31,30.43,30.29,6,1,11,0.02
2013-9-17,137.5,56.7,44.1,99.9,48.1,-8.4,93,75,44,30.31,30.01,6,1,13,0.13
2013-9-18,77.7,66.3,58.3,67.6,63.1,4.1,99,90,75,30.01,29.77,6,1,12,0.24
2013-9-19,82.9,71.4,66.7,72.7,68.1,64.7,97,90,69,29.81,29.70,7,1,13,0.40
2013-9-20,70.5,62.2,53.4,65.0,55.7,47.3,94,80,61,29.90,29.73,7,2,21,0.00
2013-9-21,65.5,54.7,45.7,50.5,45.8,42.0,95,74,47,29.98,29.89,7,1,14,0.00
2013-9-22,69.3,54.4,40.3,49.3,44.7,-11.8,96,73,44,30.06,29.94,7,1,14,0.00
2013-9-23,74.3,58.9,47.5,53.1,47.9,-4.0,90,69,10,30.06,29.95,8,1,14,0.00
2013-9-24,76.3,59.6,17.6,54.9,49.2,16.7,98,72,37,30.03,29.94,5,1,11,0.00
2013-9-25,73.4,58.6,47.7,55.6,50.1,28.6,99,76,44,30.03,29.93,5,1,14,0.00
2013-9-26,78.8,62.8,48.0,58.2,53.3,46.7,99,74,48,30.02,29.95,6,1,12,0.00
2013-9-27,84.4,69.8,58.1,62.3,55.1,21.0,77,61,10,30.03,29.90,8,2,24,0.00
2013-9-28,73.9,62.0,9.7,62.9,53.3,-11.7,95,75,51,29.96,29.71,10,2,18,0.30
2013-9-29,74.8,57.4,15.6,53.4,46.5,-4.8,99,72,37,30.00,29.89,49,1,49,0.01
2013-9-30,75.6,61.7,38.8,53.7,47.3,28.1,78,61,37,29.89,29.69,11,2,17,0.38
2013-10-1,78.8,65.3,39.0,56.4,41.6,27.8,73,47,18,29.99,29.67,6,1,14,0.01
2013-10-2,120.6,61.0,49.8,53.1,40.8,33.3,86,52,20,30.10,29.88,13,1,51,0.14
2013-10-3,72.1,57.8,36.7,59.3,55.6,12.6,98,93,10,29.96,29.82,6,3,51,0.45
2013-10-4,64.8,57.9,53.6,59.2,56.2,5.2,99,94,33,30.00,29.90,11,3,18,0.22
2013-10-5,70.9,59.0,5.5,66.9,57.5,5.2,99,95,87,29.95,29.69,7,1,16,0.67
2013-10-6,60.3,49.4,7.0,50.5,44.5,-0.6,97,85,58,29.79,29.68,4,0,8,0.05
2013-10-7,74.8,51.9,42.4,52.8,43.4,-9.9,96,76,36,30.03,29.79,6,1,11,0.00
2013-10-8,75.2,58.4,41.5,51.7,44.8,-25.2,95,65,36,30.03,29.93,8,2,16,0.00
2013-10-9,122.7,63.3,50.2,55.0,48.8,-6.9,83,62,10,30.11,29.99,7,1,15,0.00
2013-10-10,74.1,57.8,45.0,53.3,47.3,42.4,93,71,40,30.11,29.97,4,1,11,0.00
2013-10-11,120.2,63.2,12.7,96.7,51.9,-2.9,92,69,43,29.98,29.76,8,2,23,0.00
2013-10-12,68.2,58.2,47.7,54.7,45.1,38.9,75,62,44,30.15,29.75,8,2,15,0.00
2013-10-13,61.3,52.6,40.3,42.5,37.2,30.8,93,60,32,30.41,30.15,6,1,9,1.51
2013-10-14,59.2,57.3,47.1,42.7,37.4,34.3,74,48,39,30.42,30.03,7,1,15,0.00
2013-10-15,66.9,51.0,36.9,54.5,48.2,0.1,97,91,10,30.04,29.69,24,1,51,0.63
2013-10-16,49.5,45.3,35.4,47.7,41.5,-5.9,96,88,10,29.92,29.74,24,1,8,0.06
2013-10-17,56.1,44.5,34.2,46.7,39.6,-0.4,98,84,10,29.90,29.77,3,0,11,0.01
2013-10-18,53.8,45.5,39.9,45.1,36.8,-6.7,94,75,10,29.93,29.76,5,1,13,0.14
2013-10-19,50.2,41.4,34.5,41.9,35.0,-21.8,93,79,10,29.85,29.68,5,1,8,0.02
2013-10-20,45.3,37.7,29.1,41.9,35.9,-20.4,99,93,86,29.80,29.64,6,1,17,0.17
2013-10-21,79.9,36.3,33.1,72.8,27.0,20.7,92,70,48,29.92,29.80,7,2,52,0.00
2013-10-22,85.6,34.1,26.4,74.8,27.0,-11.9,90,76,10,30.01,29.91,4,1,9,0.00
2013-10-23,41.0,33.5,24.8,33.9,27.6,21.4,92,79,62,30.05,29.97,4,1,12,0.00
2013-10-24,45.9,37.6,32.4,30.7,27.2,24.0,77,66,48,30.28,30.05,6,1,13,0.00
2013-10-25,55.8,44.5,34.7,39.8,32.0,-3.3,82,63,45,30.30,29.74,10,2,49,0.00
2013-10-26,52.7,44.7,33.8,39.6,31.7,26.1,79,61,47,30.06,29.73,8,2,19,0.00
2013-10-27,60.1,42.6,27.0,35.2,29.7,23.6,90,64,33,30.11,29.79,8,1,13,0.00
2013-10-28,45.0,36.6,27.3,32.0,23.8,19.0,78,61,41,30.43,30.11,10,3,21,0.00
2013-10-29,43.2,36.8,27.1,37.1,29.4,19.7,88,74,67,30.42,30.10,7,2,11,0.00
2013-10-30,52.3,46.4,36.0,52.1,45.7,-9.0,99,97,88,30.11,29.68,4,1,14,0.21
2013-10-31,52.7,48.0,40.6,52.2,46.7,24.3,99,95,74,29.68,29.35,4,1,16,0.02
2013-11-1,88.3,42.7,18.0,86.2,39.0,13.7,95,87,78,29.81,29.35,5,1,49,0.02
2013-11-2,82.6,39.0,29.7,36.5,33.2,27.9,95,80,61,30.13,29.81,4,0,49,0.00
2013-11-3,54.3,40.5,22.6,36.5,31.5,-20.3,97,73,10,30.19,29.99,8,2,20,0.00
2013-11-4,48.0,43.5,33.1,44.6,38.2,32.3,97,82,61,30.15,29.91,8,2,49,0.19
2013-11-5,53.2,36.3,28.4,49.0,34.8,-16.1,99,95,10,30.25,29.93,10,1,17,0.46
2013-11-6,42.6,35.1,27.0,37.2,28.8,-18.2,99,80,10,30.14,29.91,6,2,11,0.12
2013-11-7,38.3,29.8,24.6,31.4,26.2,-8.1,94,87,74,30.22,30.14,4,0,10,0.00
2013-11-8,86.9,33.4,20.7,36.5,28.0,19.2,96,82,60,30.21,29.63,8,1,19,0.05
2013-11-9,47.3,42.3,37.6,42.2,34.5,-9.3,88,74,57,30.12,29.63,13,4,23,0.00
2013-11-10,51.1,41.0,35.4,33.6,28.7,-13.9,72,62,44,30.31,30.07,7,2,15,0.19
2013-11-11,40.1,27.7,18.5,31.4,15.2,3.2,90,60,41,30.65,30.07,7,2,17,0.00
2013-11-12,44.1,20.3,12.7,13.2,9.8,4.3,77,64,44,30.74,30.47,7,1,14,0.00
2013-11-13,53.4,34.9,15.8,31.3,22.6,9.8,79,62,43,30.48,29.89,12,3,60,0.00
2013-11-14,87.4,36.5,28.2,33.6,28.5,-16.9,92,73,10,29.90,29.78,5,1,71,0.00
2013-11-15,56.5,40.0,24.4,41.5,32.5,22.8,97,77,49,29.88,29.73,7,1,10,0.00
2013-11-16,55.2,46.2,41.0,53.6,42.0,-5.6,98,86,73,29.74,29.28,8,2,52,0.18
2013-11-17,44.8,40.8,33.4,41.3,36.9,-10.1,96,86,73,29.74,29.32,11,2,31,0.05
2013-11-18,34.0,28.5,18.5,26.5,20.7,-17.3,85,72,64,30.26,29.74,11,3,28,0.00
2013-11-19,41.5,30.3,16.5,25.5,20.5,10.6,91,69,48,30.30,30.03,8,2,21,0.00
2013-11-20,43.3,37.6,33.3,32.4,27.6,20.8,94,69,47,30.06,29.99,8,2,49,0.04
2013-11-21,36.9,32.9,26.1,35.8,31.1,22.8,98,93,84,30.42,30.06,5,0,11,0.30
2013-11-22,32.2,24.9,16.5,22.8,16.3,8.7,91,71,46,30.53,30.41,0,0,0,0.01
2013-11-23,19.4,12.9,5.4,10.6,2.4,-1.3,75,63,45,30.75,30.49,0,0,0,0.00
2013-11-24,27.9,16.2,2.3,13.8,5.5,-33.1,80,63,44,30.68,30.04,30,2,30,0.19
2013-11-25,41.2,33.0,26.1,28.7,22.9,13.3,74,66,58,30.03,29.91,12,4,24,0.00
2013-11-26,32.5,21.8,12.9,21.0,8.9,1.9,77,57,43,30.31,30.01,7,3,17,0.00
2013-11-27,29.3,18.5,-36.0,13.8,8.4,-40.5,82,65,47,30.33,30.10,4,1,8,0.00
2013-11-28,32.2,23.8,13.8,15.3,12.4,7.0,74,61,49,30.50,30.07,5,1,11,0.00
2013-11-29,33.1,22.1,8.8,20.6,14.0,4.3,85,71,55,30.54,30.20,8,1,14,0.00
2013-11-30,41.0,32.8,25.2,28.3,24.3,19.3,82,71,59,30.20,30.01,4,1,8,0.00
2013-12-1,38.3,27.1,17.8,28.4,21.9,14.7,93,81,60,30.17,29.95,3,0,5,0.00
2013-12-2,36.7,29.9,21.0,33.0,27.3,18.6,97,90,80,29.95,29.66,5,1,12,0.04
2013-12-3,35.2,33.4,30.6,33.6,31.7,28.3,96,94,89,29.80,29.64,8,1,14,0.17
2013-12-4,35.1,31.9,24.8,33.5,29.9,19.5,95,92,80,29.80,29.42,8,0,17,0.30
2013-12-5,24.4,11.3,3.7,19.5,4.8,-1.6,81,75,65,30.29,29.61,0,0,0,0.00
2013-12-6,74.8,3.9,-2.0,66.4,-2.9,-7.9,80,73,63,30.58,30.29,0,0,49,0.05
2013-12-7,67.6,-1.1,-8.1,-3.3,-8.1,-13.5,92,71,58,30.68,30.56,0,0,0,0.00
2013-12-8,52.7,7.7,-35.1,50.7,2.3,-39.1,94,80,10,30.57,30.00,0,0,49,0.05
2013-12-9,11.3,3.5,-7.8,7.6,-2.3,-34.5,88,76,61,30.10,29.94,0,0,0,0.00
2013-12-10,11.5,5.4,-4.7,4.5,-1.0,-9.4,86,74,61,30.19,29.77,0,0,0,0.00
2013-12-11,9.0,-1.2,-7.1,4.1,-9.1,-13.2,81,68,54,30.50,30.19,0,0,0,0.00
2013-12-12,20.7,10.6,-1.5,12.3,3.5,-8.1,81,73,59,30.36,30.13,0,0,0,0.00
2013-12-13,19.0,15.2,12.4,12.5,7.8,4.9,79,72,65,30.27,30.13,11,4,19,0.00
2013-12-14,23.4,13.8,7.3,15.3,9.0,1.5,86,81,73,30.27,29.99,8,2,14,0.00
2013-12-15,7.7,0.9,-7.2,1.6,-7.1,-14.0,79,68,53,30.15,30.00,8,2,14,0.00
2013-12-16,16.2,6.4,-4.5,13.0,0.4,-10.6,88,76,65,30.13,29.89,4,1,11,0.00
2013-12-17,32.7,23.3,8.4,29.3,16.9,2.1,93,77,64,30.08,29.81,9,3,19,0.01
2013-12-18,32.9,17.9,3.6,20.8,11.6,-0.9,89,76,60,30.07,29.66,8,1,16,0.00
2013-12-19,24.6,19.6,13.6,16.6,14.3,10.6,91,80,69,30.06,29.76,11,3,19,0.00
2013-12-20,22.1,19.0,16.5,16.9,14.0,11.5,87,80,71,30.00,29.83,10,2,15,0.00
2013-12-21,28.2,22.7,20.1,19.3,17.6,16.4,88,81,71,29.96,29.83,7,2,11,0.00
2013-12-22,27.9,23.0,16.0,22.8,18.7,12.4,88,83,77,30.14,29.86,7,1,11,0.00
2013-12-23,15.8,6.3,-5.3,12.4,1.1,-9.8,86,79,67,30.45,30.14,6,2,12,0.00
2013-12-24,15.3,3.0,-8.9,6.6,-2.5,-13.4,84,77,66,30.46,30.16,8,1,16,0.00
2013-12-25,20.7,15.4,9.1,17.2,10.8,4.3,86,82,79,30.16,30.02,6,1,11,0.00
2013-12-26,27.1,19.1,12.2,18.7,13.8,7.8,87,80,67,30.17,30.08,4,1,8,0.00
2013-12-27,39.9,25.5,7.9,30.1,20.4,5.1,93,81,67,30.17,29.88,7,2,53,0.05
2013-12-28,46.2,27.5,19.4,32.9,24.4,-7.6,96,89,57,29.98,29.67,8,1,20,0.04
2013-12-29,28.9,6.0,-11.2,23.2,-2.4,-19.2,86,68,51,30.26,29.83,11,3,21,0.00
2013-12-30,3.6,-5.7,-16.4,-5.6,-12.8,-22.5,78,70,55,30.28,30.17,3,0,8,0.00
2013-12-31,4.8,-3.5,-12.8,-5.1,-10.2,-18.3,81,72,57,30.39,30.15,5,1,11,0.00
2014-1-1,7.0,-0.3,-11.6,-2.9,-8.2,-16.6,77,68,60,30.45,30.36,8,2,11,0.00
2014-1-2,10.4,0.4,-11.9,-1.5,-7.2,-18.0,80,70,55,30.43,30.36,6,1,9,0.00